Location: Newark
(52.3500°N, 175.9667°E)
Time: 07:08:45
(UTC+00:00)

S-56A Canister/Altair - Pass Details

Date: 22 April 2021
Orbit: 631 x 2501 km, 38.9° (Epoch: 12 May)

Event Time Altitude Azimuth Distance (km) Brightness Sun altitude
Rises 14:45:46 0° 257° (WSW) 3,666 - -17.5°
Reaches altitude 10° 14:49:57 10° 233° (SW) 2,403 - -17.1°
Maximum altitude 14:52:35 14° 204° (SSW) 1,995 - -16.9°
Drops below altitude 10° 14:54:59 10° 173° (S) 2,122 - -16.6°
Exits shadow 14:56:23 - 159° (SSE) 2,403 9.8 -16.5°
Sets 14:58:15 0° 146° (SE) 2,931 10.4 -16.3°
